Regional Weather Roundup
Issued by NWS New Orleans/Baton Rouge, LA

Home | Current Version | Previous Version | Text Only | Print | Product List | Glossary On
Versions: 1 2 3 4 5 6 7 8 9 10 11 12 13 14 15 16 17 18 19 20 21 22 23 24 25 26 27 28 29 30 31 32 33 34 35 36 37 38 39 40 41 42 43 44 45 46 47 48 49 50
353
ASUS44 KLIX 202105
RWRLIX
NEW ORLEANS REGIONAL WEATHER ROUNDUP
NATIONAL WEATHER SERVICE NEW ORLEANS LA
400 PM CDT SAT SEP 20 2014

NOTE: "FAIR" INDICATES FEW OR NO CLOUDS BELOW 12,000 FEET WITH NO
      SIGNIFICANT WEATHER AND/OR OBSTRUCTIONS TO VISIBILITY.
      SKY/WX - SKY CONDITION AND SIGNIFICANT WEATHER.
      TMP - AIR TEMPERATURE.     DP    - DEWPOINT TEMPERATURE.
      RH  - RELATIVE HUMIDITY.   PRES  - PRESSURE.
      HI  - HEAT INDEX.          WCI   - WIND CHILL INDEX.

*  THESE STATIONS ARE NOT NWS OR FAA STATIONS AND ARE NOT UNDER
   NWS QUALITY CONTROL.

LAZ038-040-048-061>063-065>067-069-202200-
SOUTHEAST LOUISIANA

CITY           SKY/WX    TMP DP  RH WIND       PRES   REMARKS
N.O. AUDUBON     N/A     87  69  53 MISG        N/A
N.O. INTL ARPT MOSUNNY   87  64  46 E13       29.94F
N.O. LAKEFRONT SUNNY     86  67  52 E14       29.95S
N.O. DOWNTOWN*   N/A     86  64  48 E8        29.95F
SLIDELL        MOSUNNY   88  66  48 NE6       29.94F
BATON ROUGE    MOSUNNY   88  68  51 NE9       29.95S
BOOTHVILLE     PTSUNNY   84  73  69 NE14G23   29.94S
BELLE CHASSE   MOSUNNY   86  65  49 E13       29.94S
BOGALUSA*        N/A     89  64  43 E7        29.97S
GALLIANO*      NOT AVBL
NEW ROADS*     MOCLDY    88  67  49 E5        29.95S
GONZALES*        N/A     87  68  52 NE8       29.94S
HAMMOND*       SUNNY     90  63  40 E8        29.97S
HOUMA*         MOSUNNY   88  46  23 NE12      29.93F
PORT FOURCHON* PTCLDY    86  73  66 E16G29    29.94F

$$

MSZ070-080>082-202200-
SOUTHERN MISSISSIPPI

CITY           SKY/WX    TMP DP  RH WIND       PRES   REMARKS
MCCOMB         MOSUNNY   88  64  44 VRB7      29.97F
GULFPORT       PTSUNNY   86  70  58 SE12      29.94S
BILOXI         MOSUNNY   87  67  51 E8        29.94F
PASCAGOULA     MOSUNNY   87  68  52 E13       29.95F
STENNIS ARPT*  MOSUNNY   88  66  48 SE10      29.95S

$$

COASTAL OBSERVATIONS
LAKE AND NEARSHORE STATIONS

STATION/POSITION TIME  TEMP    WIND        PRES    WAVE
                       AIR SEA DIR/SP/G            HT/PER
                 (UTC) (F)     (DEG/KT/KT) (MB)    (FT/S)
PASCAGOULA       2100   86      70/ 12/ 16 1013.9
WAVELAND YACHT   2100   82     150/ 11/ 13 1013.5
GRAND ISLE       2100   83 83   70/ 17/ 22 1013.7
SOUTHWEST PASS   2100   88 90   60/ 21/ 25 1013.4
NEW CANAL        2100   86 81   90/  5/ 11 1014.5
SHELL BEACH      2100   82 78   80/ 17/ 19 1013.8

OFFSHORE STATIONS

STATION/POSITION TIME  TEMP    WIND        PRES    WAVE
                       AIR SEA DIR/SP/G            HT/PER
                 (UTC) (F)     (DEG/KT/KT) (MB)    (FT/S)
64 S DAUPHIN ISL 2039   80 84   60/ 21/ 23 1013.6    6/ 6

$$




USA.gov is the U.S. government's official web portal to all federal, state and local government web resources and services.